Location: D�sseldorf
(51.2275°N, 6.7813°E)
Time: 02:15:10
(UTC+01:00)

ISS - Visible Passes

Search period start: 08 December 2021 00:00
Search period end: 18 December 2021 00:00
Orbit: 417 x 422 km, 51.6° (Epoch: 07 December)

Date Brightness Start Highest point End Pass type
(mag) Time Alt. Az. Time Alt. Az. Time Alt. Az.
08 Dec -0.7 18:03:53 10° WSW 18:05:57 15° SW 18:08:01 10° S visible
09 Dec -0.9 17:16:04 10° W 17:18:44 22° SW 17:21:25 10° SSE visible
11 Dec 0.3 17:19:56 10° SW 17:20:19 10° SW 17:20:42 10° SW visible
17 Dec -0.4 07:44:58 10° S 07:46:46 14° SE 07:48:34 10° ESE visible
